EW9034 Weather Reports


Display with metric or nautical units.
time (UTC)temp
F
wind
direction
speed
MPH
gust
MPH
rain 1hr
in
rain 24hr
in
rain mn
in
humidity
%
barometer
mb
20260904071558 48 188 0.0 2.0 0.00 0.00 0.00 82 1006.1
20260904070039 48 187 0.0 3.0 0.00 0.00 0.00 82 1006.2
20260904064544 48 187 1.0 3.0 0.00 0.00 0.00 81 1006.2
20260904063047 48 187 2.0 4.0 0.00 0.00 0.00 79 1006.3
20260904061532 50 187 1.0 4.0 0.00 0.00 0.00 78 1006.1
20260904060029 50 187 1.0 4.0 0.00 0.00 0.00 76 1006.0
20260904054534 50 185 2.0 5.0 0.00 0.00 0.00 75 1005.9
20260904053026 51 178 0.0 3.0 0.00 0.00 0.00 77 1005.7
20260904051524 50 178 2.0 4.0 0.00 0.00 0.00 73 1005.7
20260904050023 50 178 0.0 4.0 0.00 0.00 0.00 75 1005.6
20260904044521 51 178 0.0 3.0 0.00 0.00 0.00 76 1005.5
20260904043021 51 178 2.0 6.0 0.00 0.00 0.00 73 1005.4
20260904041525 51 178 2.0 6.0 0.00 0.00 0.00 72 1005.3
20260904040017 52 184 2.0 4.0 0.00 0.00 0.00 67 1005.3
20260904034513 54 184 3.0 5.0 0.00 0.00 0.00 66 1005.1
20260904033011 56 183 2.0 3.0 0.00 0.00 0.00 66 1005.0
20260904031510 56 183 3.0 6.0 0.00 0.00 0.00 64 1004.9
20260904030010 55 223 3.0 5.0 0.00 0.00 0.00 65 1004.9
20260904024507 59 245 2.0 4.0 0.00 0.00 0.00 56 1004.6
20260904023009 62 246 4.0 9.0 0.00 0.00 0.00 54 1004.5
20260904021515 63 245 8.0 10.0 0.00 0.00 0.00 50 1004.4
20260904020004 66 242 6.0 9.0 0.00 0.00 0.00 47 1004.2
20260904014502 68 246 7.0 14.0 0.00 0.00 0.00 43 1004.0
20260904013100 70 244 9.0 13.0 0.00 0.00 0.00 40 1003.8
20260904011559 72 221 8.0 14.0 0.00 0.00 0.00 38 1003.6
20260904010057 72 237 6.0 14.0 0.00 0.00 0.00 39 1003.4
20260904004559 73 302 4.0 9.0 0.00 0.00 0.00 38 1003.2
20260904003054 73 262 5.0 10.0 0.00 0.00 0.00 39 1003.0
20260904001552 74 236 8.0 14.0 0.00 0.00 0.00 36 1002.8
20260904000050 76 243 11.0 17.0 0.00 0.00 0.00 34 1002.5
20260903234549 77 255 14.0 21.0 0.00 0.00 0.00 34 1002.4
20260903233048 75 262 7.0 13.0 0.00 0.00 0.00 37 1002.3
20260903231551 77 249 11.0 16.0 0.00 0.00 0.00 34 1002.1
20260903230048 76 249 11.0 18.0 0.00 0.00 0.00 34 1001.9
20260903224545 76 257 9.0 17.0 0.00 0.00 0.00 36 1001.7
20260903223042 77 255 10.0 19.0 0.00 0.00 0.00 35 1001.6
20260903221547 77 232 11.0 19.0 0.00 0.00 0.00 34 1001.5
20260903220038 75 246 8.0 16.0 0.00 0.00 0.00 38 1001.4
20260903214537 75 241 11.0 17.0 0.00 0.00 0.00 37 1001.4
20260903213037 77 258 13.0 19.0 0.00 0.00 0.00 35 1001.2
20260903211535 77 302 12.0 19.0 0.00 0.00 0.00 35 1001.2
20260903210035 75 245 8.0 16.0 0.00 0.00 0.00 38 1001.2
20260903204533 75 267 9.0 14.0 0.00 0.00 0.00 37 1001.2
20260903203045 74 212 6.0 14.0 0.00 0.00 0.00 36 1001.0
20260903201531 75 281 5.0 18.0 0.00 0.00 0.00 39 1001.1
20260903200040 75 261 10.0 18.0 0.00 0.00 0.00 37 1001.0
20260903194538 76 239 11.0 17.0 0.00 0.00 0.00 36 1001.1
20260903193034 76 248 12.0 20.0 0.00 0.00 0.00 37 1001.1
20260903191528 75 228 9.0 20.0 0.00 0.00 0.00 38 1001.2
20260903190023 74 214 10.0 21.0 0.00 0.00 0.00 36 1001.1
20260903184521 74 222 8.0 28.0 0.00 0.00 0.00 38 1001.2
20260903183021 73 221 16.0 23.0 0.00 0.00 0.00 38 1001.3
20260903181518 72 250 16.0 23.0 0.00 0.00 0.00 40 1001.3
20260903180031 72 261 14.0 21.0 0.00 0.00 0.00 41 1001.3
20260903174515 73 267 12.0 22.0 0.00 0.00 0.00 42 1001.2
20260903173011 71 234 14.0 24.0 0.00 0.00 0.00 45 1001.2
20260903171511 68 242 9.0 15.0 0.00 0.00 0.00 50 1001.3
20260903170009 69 265 13.0 19.0 0.00 0.00 0.00 47 1001.2
20260903164507 68 206 9.0 19.0 0.00 0.00 0.00 47 1001.0
20260903163004 67 188 11.0 20.0 0.00 0.00 0.00 50 1000.9
20260903161504 67 229 11.0 20.0 0.00 0.00 0.00 52 1000.9
20260903160004 66 222 10.0 22.0 0.00 0.00 0.00 50 1001.0
20260903154559 65 160 10.0 17.0 0.00 0.00 0.00 52 1000.9
20260903153056 63 215 8.0 18.0 0.00 0.00 0.00 55 1000.8
20260903151554 62 217 10.0 19.0 0.00 0.00 0.00 56 1000.6
20260903150053 61 232 10.0 21.0 0.00 0.00 0.00 56 1000.4
20260903144548 61 198 11.0 19.0 0.00 0.00 0.00 57 1000.4
20260903143142 60 180 10.0 21.0 0.00 0.00 0.00 58 1000.5
20260903141539 59 215 10.0 15.0 0.00 0.00 0.00 58 1000.1
20260903140037 59 189 9.0 16.0 0.00 0.00 0.00 58 999.8
20260903134533 59 244 8.0 22.0 0.00 0.00 0.00 59 999.7
20260903133029 59 227 10.0 19.0 0.00 0.00 0.00 59 999.6
20260903131526 58 217 12.0 19.0 0.00 0.00 0.00 60 999.4
20260903130026 58 186 13.0 19.0 0.00 0.00 0.00 59 999.2
20260903124519 58 202 14.0 25.0 0.00 0.00 0.00 59 999.1
20260903123020 59 227 14.0 26.0 0.00 0.00 0.00 58 999.0
20260903121520 58 193 13.0 24.0 0.00 0.00 0.00 60 998.8
20260903120017 57 178 11.0 19.0 0.00 0.00 0.00 61 999.0
20260903114517 58 191 12.0 20.0 0.00 0.00 0.00 59 998.7
20260903113026 58 203 14.0 20.0 0.00 0.00 0.00 60 998.7
20260903111514 59 209 15.0 25.0 0.00 0.00 0.00 58 998.7
20260903110022 58 182 18.0 27.0 0.00 0.00 0.00 60 998.8
20260903104512 58 192 11.0 20.0 0.00 0.00 0.00 61 998.9
20260903103011 58 173 11.0 22.0 0.00 0.00 0.00 62 998.5
20260903101510 58 192 12.0 19.0 0.00 0.00 0.00 62 998.4
20260903100007 58 212 12.0 21.0 0.00 0.00 0.00 64 998.5
20260903094515 57 197 11.0 24.0 0.00 0.00 0.00 66 998.6
20260903093004 56 207 10.0 15.0 0.00 0.00 0.00 68 998.8
20260903091503 55 201 7.0 12.0 0.00 0.00 0.00 73 998.9
20260903090001 54 190 4.0 11.0 0.00 0.00 0.00 75 998.8
20260903084558 55 185 5.0 9.0 0.00 0.00 0.00 74 998.6
20260903083059 56 203 10.0 15.0 0.00 0.00 0.00 73 998.6
20260903081554 55 209 9.0 16.0 0.00 0.00 0.00 74 998.5
20260903080051 56 213 9.0 20.0 0.00 0.00 0.00 74 998.5
20260903074559 56 229 12.0 19.0 0.00 0.00 0.00 74 998.3
20260903073048 56 227 12.0 18.0 0.00 0.00 0.00 74 998.2